timestamp,surface_pressure_avg,surface_temp_avg,battery_voltage,lat,long
2018-04-25 00:00:00+00:00,214.7165,4.3,13.05,47.84626,-54.09684
2018-04-25 00:10:00+00:00,213.1981,4.3,13.05,47.84626,-54.09684
2018-04-25 00:20:00+00:00,213.5582,4.3,13.05,47.84626,-54.09684
2018-04-25 00:30:00+00:00,210.9281,4.3,13.05,47.84626,-54.09684
2018-04-25 00:40:00+00:00,207.3231,4.3,13.13,47.84626,-54.09684
2018-04-25 00:50:00+00:00,208.7697,4.3,13.13,47.84626,-54.09684
2018-04-25 01:00:00+00:00,211.2898,4.3,13.05,47.84626,-54.09684
2018-04-25 01:10:00+00:00,209.2931,4.29,12.97,47.84626,-54.09684
2018-04-25 01:20:00+00:00,206.7664,4.3,13.05,47.84626,-54.09684
2018-04-25 01:30:00+00:00,208.6848,4.3,13.05,47.84626,-54.09684
2018-04-25 01:40:00+00:00,209.9348,4.3,13.05,47.84626,-54.09684
2018-04-25 01:50:00+00:00,207.8198,4.3,13.05,47.84626,-54.09684
2018-04-25 02:00:00+00:00,208.9164,4.3,13.05,47.84626,-54.09684
2018-04-25 02:10:00+00:00,212.6448,4.3,12.97,47.84626,-54.09684
2018-04-25 02:20:00+00:00,213.9431,4.3,13.05,47.84626,-54.09684
2018-04-25 02:30:00+00:00,214.4598,4.25,13.05,47.84626,-54.09684
2018-04-25 02:40:00+00:00,216.2014,4.23,13.05,47.84626,-54.09684
2018-04-25 02:50:00+00:00,216.8831,4.2,13.05,47.84626,-54.09684
2018-04-25 03:00:00+00:00,219.0565,4.2,13.05,47.84626,-54.09684
2018-04-25 03:10:00+00:00,220.8848,4.2,12.97,47.84626,-54.09684
2018-04-25 03:20:00+00:00,221.6531,4.2,13.05,47.84626,-54.09684
2018-04-25 03:30:00+00:00,225.3764,4.2,13.05,47.84626,-54.09684
2018-04-25 03:40:00+00:00,229.4998,4.17,13.05,47.84626,-54.09684
2018-04-25 03:50:00+00:00,231.6981,4.16,13.05,47.84626,-54.09684
2018-04-25 04:00:00+00:00,233.6181,4.18,12.97,47.84626,-54.09684
2018-04-25 04:10:00+00:00,239.3781,4.19,12.97,47.84626,-54.09684
2018-04-25 04:20:00+00:00,245.3914,4.19,13.05,47.84626,-54.09684
2018-04-25 04:30:00+00:00,250.1514,4.17,13.05,47.84626,-54.09684
2018-04-25 04:40:00+00:00,256.9181,4.17,13.05,47.84626,-54.09684
2018-04-25 04:50:00+00:00,266.8631,4.16,13.05,47.84626,-54.09684
2018-04-25 05:00:00+00:00,272.7414,4.16,12.97,47.84626,-54.09684
2018-04-25 05:10:00+00:00,275.7114,4.15,12.97,47.84626,-54.09684
2018-04-25 05:20:00+00:00,281.0181,4.14,12.97,47.84626,-54.09684
2018-04-25 05:30:00+00:00,288.1931,4.13,12.97,47.84626,-54.09684
2018-04-25 05:40:00+00:00,290.8713,4.13,13.05,47.84626,-54.09684
2018-04-25 05:50:00+00:00,294.478,4.1,13.05,47.84626,-54.09684
2018-04-25 06:00:00+00:00,302.2413,4.1,12.97,47.84626,-54.09684
2018-04-25 06:10:00+00:00,307.863,4.1,12.89,47.84626,-54.09684
2018-04-25 06:20:00+00:00,307.9346,4.1,12.97,47.84626,-54.09684
2018-04-25 06:30:00+00:00,311.2946,4.1,12.97,47.84626,-54.09684
2018-04-25 06:40:00+00:00,320.0114,4.1,13.05,47.84626,-54.09684
2018-04-25 06:50:00+00:00,323.4297,4.1,13.05,47.84626,-54.09684
2018-04-25 07:00:00+00:00,321.178,4.1,12.97,47.84626,-54.09684
2018-04-25 07:10:00+00:00,324.258,4.1,12.89,47.84626,-54.09684
2018-04-25 07:20:00+00:00,330.278,4.2,12.97,47.84626,-54.09684
2018-04-25 07:30:00+00:00,329.2364,4.2,12.97,47.84626,-54.09684
2018-04-25 07:40:00+00:00,326.5262,4.12,12.97,47.84626,-54.09684
2018-04-25 07:50:00+00:00,329.923,4.2,13.05,47.84626,-54.09684
2018-04-25 08:00:00+00:00,333.4331,4.2,12.97,47.84626,-54.09684
2018-04-25 08:10:00+00:00,332.348,4.2,12.89,47.84626,-54.09684
2018-04-25 08:20:00+00:00,331.1346,4.2,12.97,47.84626,-54.09684
2018-04-25 08:30:00+00:00,330.9896,4.2,12.97,47.84626,-54.09684
2018-04-25 08:40:00+00:00,328.8846,4.26,12.97,47.84626,-54.09684
2018-04-25 08:50:00+00:00,325.678,4.3,13.05,47.84626,-54.09684
2018-04-25 09:00:00+00:00,319.8763,4.3,12.97,47.84626,-54.09684
2018-04-25 09:10:00+00:00,319.4263,4.3,12.97,47.84626,-54.09684
2018-04-25 09:20:00+00:00,316.018,4.3,13.05,47.84626,-54.09684
2018-04-25 09:30:00+00:00,310.3597,4.3,13.05,47.84626,-54.09684
2018-04-25 09:40:00+00:00,302.0097,4.3,13.13,47.84626,-54.09684
2018-04-25 09:50:00+00:00,295.868,4.3,13.21,47.84626,-54.09684
2018-04-25 10:00:00+00:00,291.3031,4.3,13.21,47.84626,-54.09684
2018-04-25 10:10:00+00:00,286.1714,4.3,13.21,47.84626,-54.09684
2018-04-25 10:20:00+00:00,279.2014,4.32,13.53,47.84626,-54.09684
2018-04-25 10:30:00+00:00,271.4231,4.3,13.76,47.84626,-54.09684
2018-04-25 10:40:00+00:00,266.7147,4.3,14.88,47.84626,-54.09684
2018-04-25 10:50:00+00:00,258.4997,4.3,15.2,47.84626,-54.09684
2018-04-25 11:00:00+00:00,250.2097,4.3,14.72,47.84626,-54.09684
2018-04-25 11:10:00+00:00,244.0364,4.3,15.35,47.84626,-54.09684
2018-04-25 11:20:00+00:00,243.9714,4.25,16.23,47.84626,-54.09684
2018-04-25 11:30:00+00:00,239.3181,4.2,15.04,47.84626,-54.09684
2018-04-25 11:40:00+00:00,231.2431,4.17,15.91,47.84626,-54.09684
2018-04-25 11:50:00+00:00,226.1081,4.2,15.75,47.84626,-54.09684
2018-04-25 12:00:00+00:00,222.5398,4.2,15.27,47.84626,-54.09684
2018-04-25 12:10:00+00:00,217.8414,4.2,14.96,47.84626,-54.09684
2018-04-25 12:20:00+00:00,213.4464,4.2,16.07,47.84626,-54.09684
2018-04-25 12:30:00+00:00,211.2415,4.2,14.88,47.84626,-54.09684
2018-04-25 12:40:00+00:00,208.6998,4.2,15.75,47.84626,-54.09684
2018-04-25 12:50:00+00:00,205.9231,4.2,15.91,47.84626,-54.09684
2018-04-25 13:00:00+00:00,204.7881,4.24,14.72,47.84626,-54.09684
2018-04-25 13:10:00+00:00,204.5014,4.28,14.56,47.84626,-54.09684
2018-04-25 13:20:00+00:00,205.6548,4.3,15.11,47.84626,-54.09684
2018-04-25 13:30:00+00:00,206.0381,4.3,14.56,47.84626,-54.09684
2018-04-25 13:40:00+00:00,203.7798,4.3,14.48,47.84626,-54.09684
2018-04-25 13:50:00+00:00,201.0981,4.3,14.4,47.84626,-54.09684
2018-04-25 14:00:00+00:00,199.3465,4.3,14.32,47.84626,-54.09684
2018-04-25 14:10:00+00:00,198.1398,4.3,14.32,47.84626,-54.09684
2018-04-25 14:20:00+00:00,198.1914,4.37,14.88,47.84626,-54.09684
2018-04-25 14:30:00+00:00,200.0298,4.38,15.75,47.84626,-54.09684
2018-04-25 14:40:00+00:00,199.9065,4.39,15.91,47.84626,-54.09684
2018-04-25 14:50:00+00:00,198.1431,4.45,15.27,47.84626,-54.09684
2018-04-25 15:00:00+00:00,200.1915,4.5,14.56,47.84626,-54.09684
2018-04-25 15:10:00+00:00,203.3015,4.56,14.56,47.84626,-54.09684
2018-04-25 15:20:00+00:00,201.8665,4.6,14.96,47.84626,-54.09684
2018-04-25 15:30:00+00:00,202.2264,4.6,14.64,47.84626,-54.09684
2018-04-25 15:40:00+00:00,206.0281,4.61,14.64,47.84626,-54.09684
2018-04-25 15:50:00+00:00,209.2231,4.6,14.64,47.84626,-54.09684
2018-04-25 16:00:00+00:00,211.1381,4.5,14.4,47.84626,-54.09684
2018-04-25 16:10:00+00:00,214.6298,4.59,14.4,47.84626,-54.09684
2018-04-25 16:20:00+00:00,222.3864,4.6,14.56,47.84626,-54.09684
2018-04-25 16:30:00+00:00,224.4098,4.6,14.48,47.84626,-54.09684
2018-04-25 16:40:00+00:00,223.2114,4.68,14.48,47.84626,-54.09684
2018-04-25 16:50:00+00:00,229.8047,4.7,14.4,47.84626,-54.09684
2018-04-25 17:00:00+00:00,239.6848,4.7,14.32,47.84626,-54.09684
2018-04-25 17:10:00+00:00,245.4064,4.69,14.24,47.84626,-54.09684
2018-04-25 17:20:00+00:00,251.9314,4.7,14.4,47.84626,-54.09684
2018-04-25 17:30:00+00:00,259.2314,4.6,14.32,47.84626,-54.09684
2018-04-25 17:40:00+00:00,266.6014,4.5,14.32,47.84626,-54.09684
2018-04-25 17:50:00+00:00,271.873,4.58,14.24,47.84626,-54.09684
2018-04-25 18:00:00+00:00,277.9631,4.59,14.16,47.84626,-54.09684
2018-04-25 18:10:00+00:00,280.9097,4.59,14.0,47.84626,-54.09684
2018-04-25 18:20:00+00:00,286.258,4.6,14.08,47.84626,-54.09684
2018-04-25 18:30:00+00:00,290.9963,4.64,14.08,47.84626,-54.09684
2018-04-25 18:40:00+00:00,296.0681,4.69,14.08,47.84626,-54.09684
2018-04-25 18:50:00+00:00,299.408,4.7,14.08,47.84626,-54.09684
2018-04-25 19:00:00+00:00,305.5579,4.7,14.0,47.84626,-54.09684
2018-04-25 19:10:00+00:00,309.9397,4.7,13.84,47.84626,-54.09684
2018-04-25 19:20:00+00:00,314.933,4.7,14.0,47.84626,-54.09684
2018-04-25 19:30:00+00:00,318.1447,4.6,14.0,47.84626,-54.09684
2018-04-25 19:40:00+00:00,319.9597,4.58,14.0,47.84626,-54.09684
2018-04-25 19:50:00+00:00,320.473,4.59,14.0,47.84626,-54.09684
2018-04-25 20:00:00+00:00,318.373,4.6,13.84,47.84626,-54.09684
2018-04-25 20:10:00+00:00,316.5164,4.6,13.76,47.84626,-54.09684
2018-04-25 20:20:00+00:00,320.453,4.58,13.76,47.84626,-54.09684
2018-04-25 20:30:00+00:00,323.2397,4.6,13.76,47.84626,-54.09684
2018-04-25 20:40:00+00:00,321.0781,4.6,13.76,47.84626,-54.09684
2018-04-25 20:50:00+00:00,318.938,4.6,13.76,47.84626,-54.09684
2018-04-25 21:00:00+00:00,321.5713,4.6,13.68,47.84626,-54.09684
2018-04-25 21:10:00+00:00,319.2547,4.6,13.53,47.84626,-54.09684
2018-04-25 21:20:00+00:00,315.278,4.6,13.6,47.84626,-54.09684
2018-04-25 21:30:00+00:00,311.6663,4.6,13.53,47.84626,-54.09684
2018-04-25 21:40:00+00:00,308.373,4.59,13.53,47.84626,-54.09684
2018-04-25 21:50:00+00:00,302.4346,4.59,13.53,47.84626,-54.09684
2018-04-25 22:00:00+00:00,297.583,4.59,13.37,47.84626,-54.09684
2018-04-25 22:10:00+00:00,294.2697,4.65,13.29,47.84626,-54.09684
2018-04-25 22:20:00+00:00,288.6763,4.79,13.29,47.84626,-54.09684
2018-04-25 22:30:00+00:00,285.6547,4.8,13.29,47.84626,-54.09684
2018-04-25 22:40:00+00:00,281.3464,4.66,13.29,47.84626,-54.09684
2018-04-25 22:50:00+00:00,275.1331,4.69,13.21,47.84626,-54.09684
2018-04-25 23:00:00+00:00,265.9231,4.7,13.21,47.84626,-54.09684
2018-04-25 23:10:00+00:00,258.9798,4.7,13.05,47.84626,-54.09684
2018-04-25 23:20:00+00:00,251.9364,4.7,13.13,47.84626,-54.09684
2018-04-25 23:30:00+00:00,243.843,4.7,13.13,47.84626,-54.09684
2018-04-25 23:40:00+00:00,238.6564,4.7,13.13,47.84626,-54.09684
2018-04-25 23:50:00+00:00,238.0014,4.7,13.13,47.84626,-54.09684
